Lid_Strength_Index
-1 -1 -1 -1 -1 -1 -1 -1 -1 -1 -0 -0 0 -0 -0 -1 -1 0 3 1 3 7 6 5 5 8 7 8 11 8 8 9 11 14 13 13 14 12 12 10 12 13 15 16 14 17 18 7 9 12 10 8 7 8
-1 -1 -1 -1 -1 -1 -1 -1 -1 -1 -1 -0 -0 0 -0 -1 -1 -1 4 2 1 5 7 4 4 4 5 4 6 7 8 8 8 10 10 11 13 12 13 16 9 14 12 14 13 13 8 7 8 7 6 7 8 7
-1 -1 -1 -1 -1 -1 -1 -1 -1 -1 -1 -0 -0 -0 -0 -1 -1 -0 3 2 3 5 7 8 7 4 2 3 3 8 7 6 6 5 8 10 12 10 14 13 12 9 8 11 11 10 9 7 6 6 6 7 6 6
-1 -1 -1 -1 -1 -1 -1 -1 -1 -1 -1 -1 -0 -0 -1 -1 -1 -0 2 2 3 5 10 9 4 6 3 3 3 4 5 4 4 5 8 10 11 8 11 10 11 9 9 11 11 9 8 7 6 6 5 6 6 6
-1 -1 -1 -1 -1 -1 -1 -1 -1 -1 -1 -1 -1 -1 -1 -1 -1 1 2 2 2 5 10 10 6 4 3 4 4 4 5 6 7 8 11 11 8 9 9 9 11 8 10 12 13 8 8 8 6 5 6 7 6 7
0 0 0 -0 -1 -1 -1 -1 -1 -1 -1 -0 -0 -0 -1 -1 -0 2 7 2 1 4 8 14 7 6 5 4 5 5 5 7 7 9 9 9 6 9 11 14 8 7 6 6 8 6 6 6 5 5 6 7 7 7
1 2 1 1 0 -0 -0 -1 -1 -0 1 0 -0 -0 -1 -1 2 5 6 3 1 2 7 12 11 7 5 5 6 6 5 6 7 7 8 8 9 7 10 12 8 6 6 6 5 6 8 7 8 6 6 7 6 7
3 3 2 2 2 1 1 1 1 1 1 0 0 0 1 1 2 4 3 1 1 4 6 12 12 10 6 9 10 7 8 7 6 7 7 8 8 9 12 9 8 7 7 7 6 6 7 7 7 7 7 8 8 9
2 2 2 3 3 2 1 1 1 2 1 1 1 1 3 4 6 4 1 1 2 7 10 10 13 14 6 7 7 7 6 10 6 9 9 8 10 12 10 9 8 7 7 7 6 6 6 7 7 7 7 8 9 10
1 1 1 2 1 1 1 1 2 1 1 2 3 6 8 5 1 1 4 6 6 6 7 9 9 12 7 8 8 8 8 10 12 9 7 11 12 8 8 7 6 6 6 5 7 9 7 8 8 8 8 8 9 9
1 1 1 1 1 1 1 1 2 2 2 5 7 7 3 2 5 6 9 9 10 10 8 8 9 10 6 9 10 8 10 9 13 11 11 12 12 9 7 7 6 6 6 6 5 6 6 7 8 9 9 8 9 10
1 1 1 1 1 1 1 1 2 4 5 5 4 3 4 6 8 11 14 11 10 12 10 10 10 8 8 6 8 8 11 10 14 9 11 14 11 8 7 6 6 6 6 6 6 6 7 7 7 8 8 9 10 10
-0 0 0 0 1 1 1 1 1 1 2 3 5 7 10 9 13 13 14 12 11 11 10 10 9 9 8 7 9 9 12 13 9 13 15 13 10 8 8 7 8 7 7 7 7 7 7 8 8 9 11 11 11 12
-0 -0 -0 0 0 1 1 0 0 2 5 10 12 12 13 13 11 12 12 11 10 9 9 8 8 10 9 9 11 12 10 10 17 18 14 11 11 10 8 8 8 9 10 9 10 10 11 11 12 13 13 14 13 14
-0 -0 -0 0 0 1 1 0 0 4 6 8 9 14 14 11 8 8 10 10 8 6 7 8 9 8 9 10 10 11 14 16 14 15 11 13 11 10 10 10 10 11 12 11 11 12 13 13 13 15 16 14 14 15
-0 0 1 -0 -0 0 1 2 3 4 8 9 10 13 11 13 11 9 9 9 7 7 8 9 9 11 11 11 12 13 13 15 13 11 10 10 9 9 10 10 11 11 11 11 11 11 12 13 13 13 14 15 16 14
0 3 0 0 0 0 1 4 6 8 10 9 12 10 11 13 9 8 8 8 6 8 9 9 12 12 9 12 12 12 14 11 12 10 10 10 10 10 10 10 12 11 11 11 11 12 13 13 13 12 13 14 13 15
2 0 0 0 1 2 3 5 7 8 10 11 12 8 9 9 9 9 8 8 7 8 9 10 8 11 15 13 14 12 11 10 10 10 10 10 10 10 10 10 10 10 10 11 11 12 14 13 13 13 12 13 14 13
0 0 -0 -0 0 3 7 6 6 9 12 9 9 9 9 8 8 8 8 8 7 6 8 9 11 12 12 11 11 12 14 12 11 10 11 10 10 10 10 10 10 10 11 11 11 12 12 11 12 12 12 12 13 13
1 1 1 1 2 5 6 8 5 8 10 10 9 10 8 9 9 9 8 8 8 8 9 9 11 10 10 10 12 13 14 12 10 11 11 11 10 10 10 10 10 10 11 10 11 11 11 11 11 11 11 12 13 13
2 4 2 3 5 5 8 9 9 9 8 10 9 9 9 8 9 9 9 8 9 9 10 10 10 10 9 10 9 9 9 9 10 10 11 11 10 10 10 11 10 11 11 12 11 12 12 11 11 11 11 11 11 12
5 3 6 4 8 8 10 8 9 9 10 10 10 10 11 10 10 11 9 10 9 9 9 9 9 9 9 9 9 8 9 9 9 9 9 9 10 10 10 10 9 10 10 10 10 10 10 10 11 11 12 12 12 11
4 5 7 8 11 13 13 9 10 9 12 12 10 11 13 13 12 10 10 9 9 10 8 8 8 8 8 8 9 9 8 9 10 10 10 10 10 10 10 9 9 9 10 10 10 10 11 11 11 12 12 12 13 15
4 9 13 13 12 16 12 14 10 10 12 12 13 14 12 14 11 12 12 13 13 12 11 9 8 9 8 9 9 9 9 9 10 10 9 10 10 10 10 10 10 10 10 10 10 11 11 11 11 12 12 13 13 14
13 14 14 19 13 15 18 18 16 13 17 15 14 17 14 11 16 15 14 13 10 10 11 9 9 9 9 10 10 10 8 9 10 10 10 10 10 10 11 11 11 11 10 10 11 11 11 11 11 12 12 13 14 16
19 18 16 16 17 14 13 17 18 17 15 17 16 13 13 15 16 17 12 10 10 9 9 9 9 9 9 10 11 10 10 9 9 11 11 10 10 10 12 13 16 15 11 11 10 10 11 11 11 12 13 15 16 17
19 18 10 8 9 10 15 14 10 14 17 18 15 15 17 16 20 15 14 12 10 10 9 9 9 9 9 10 10 10 10 10 10 10 11 11 11 11 11 12 13 13 13 12 11 10 10 10 10 12 13 13 14 15
14 13 17 16 15 11 18 18 18 18 16 12 11 17 19 18 15 13 13 12 10 9 10 10 10 9 9 10 11 11 12 12 12 12 12 12 13 14 13 13 12 12 13 13 10 10 10 11 12 14 14 15 15 15
15 12 13 19 20 17 17 16 16 12 10 13 18 18 16 12 14 14 14 14 13 10 10 14 13 12 11 11 11 11 11 11 12 14 14 15 16 15 14 14 13 13 13 11 10 10 12 13 15 16 16 16 17 17
16 11 12 19 19 19 16 13 16 14 11 11 11 12 12 14 15 15 14 15 16 16 15 10 10 11 13 14 14 13 12 12 12 12 13 13 13 13 13 14 15 14 14 13 14 14 14 16 16 17 17 18 18 19
15 15 15 15 16 17 15 13 11 12 13 14 15 13 11 15 13 16 16 18 17 19 17 12 9 9 10 13 15 16 16 14 13 13 12 12 12 12 13 14 16 17 17 16 17 17 17 18 18 19 19 20 20 20
22 21 21 22 19 17 19 17 19 19 19 18 16 18 16 13 11 13 13 11 11 11 10 10 10 10 11 12 13 14 13 13 14 12 12 12 13 13 13 14 16 17 17 16 16 17 17 18 19 19 20 21 22 22
23 25 25 20 21 21 13 15 18 20 22 21 19 19 14 12 14 16 15 15 15 16 14 12 12 12 13 14 13 12 11 11 11 10 12 12 13 13 13 13 14 14 14 15 16 16 18 19 20 21 22 23 24 25